Weather History for Cape Girardeau, MO

Change the Weather History Date:

Wednesday, December 12, 2012

  Actual Average Record
Temperature  
Mean Temperature 35 °F 36 °F  
Max Temperature 47 °F 45 °F 65 °F (1991)
Min Temperature 23 °F 28 °F -5 °F (1962)
Degree Days  
Heating Degree Days 30 28  
Month to date heating degree days 178 321  
Since 1 July heating degree days 1117 1172  
Cooling Degree Days 0 0  
Month to date cooling degree days 0 0  
Year to date cooling degree days 1784 1453  
Moisture  
Dew Point 26 °F    
Average Humidity 71    
Maximum Humidity 92    
Minimum Humidity 49    
Precipitation  
Precipitation 0.00 in 0.13 in 1.30 in (1979)
Month to date precipitation 0.84 1.76  
Year to date precipitation 26.12 44.32  
Sea Level Pressure  
Sea Level Pressure 30.34 in    
Wind  
Wind Speed 1 mph (SSE)    
Max Wind Speed 7 mph    
Max Gust Speed 9 mph    
Visibility 9 miles    
Events      
T = Trace of Precipitation, MM = Missing Value Source: NWS Daily Summary

Daily Weather History Graph

Daily Weather History Graph

Search for Another Location

Airport:

Trip Planner

Search our weather history database for the weather conditions in past years. The results will help you decide how hot, cold, wet, or windy it might be!

Date:

Astronomy

Dec. 12, 2012 Rise Set
Actual Time 7:03 AM CST 4:41 PM CST
Civil Twilight 6:34 AM CST 5:10 PM CST
Nautical Twilight 6:01 AM CST 5:43 PM CST
Astronomical Twilight 5:29 AM CST 6:14 PM CST
Moon 6:07 AM CST (12/12) 4:18 PM CST (12/12)
Length of Visible Light 10h 36m
Length of Day
9h 38m
Waning Crescent, 1% of the Moon is Illuminated
Dec 12
Waning Crescent
Dec 13
New
Dec 19
First Quarter
Dec 28
Full
Jan 4
Last Quarter

Hourly Weather History & Observations

Time (CST) Temp. Windchill Dew Point Humidity Pressure Visibility Wind Dir Wind Speed Gust Speed Precip Events Conditions
12:53 AM 26.1 °F - 24.1 °F 92% 30.28 in 8.0 mi Calm Calm - N/A   Clear
1:53 AM 25.0 °F - 21.9 °F 88% 30.29 in 9.0 mi Calm Calm - N/A   Clear
2:53 AM 25.0 °F - 21.9 °F 88% 30.30 in 8.0 mi Calm Calm - N/A   Clear
3:53 AM 23.0 °F - 19.9 °F 88% 30.30 in 8.0 mi Calm Calm - N/A   Clear
4:53 AM 24.1 °F 19.7 °F 21.0 °F 88% 30.30 in 9.0 mi East 3.5 mph - N/A   Clear
5:53 AM 24.1 °F - 21.0 °F 88% 30.33 in 8.0 mi Calm Calm - N/A   Clear
6:53 AM 24.1 °F - 21.0 °F 88% 30.34 in 6.0 mi Calm Calm - N/A   Clear
7:53 AM 25.0 °F - 23.0 °F 92% 30.36 in 5.0 mi Calm Calm - N/A   Clear
9:53 AM 35.1 °F - 28.9 °F 78% 30.40 in 10.0 mi Calm Calm - N/A   Clear
10:53 AM 39.9 °F - 28.9 °F 65% 30.39 in 10.0 mi Calm Calm - N/A   Clear
12:53 PM 46.0 °F 43.9 °F 28.0 °F 50% 30.35 in 10.0 mi SSE 4.6 mph - N/A   Clear
1:53 PM 46.9 °F - 28.0 °F 48% 30.33 in 10.0 mi SSE 5.8 mph - N/A   Clear
2:53 PM 46.9 °F - 28.9 °F 50% 30.32 in 10.0 mi South 3.5 mph - N/A   Clear
3:53 PM 45.0 °F 42.6 °F 30.0 °F 56% 30.33 in 10.0 mi SSE 4.6 mph - N/A   Clear
4:53 PM 39.9 °F 36.7 °F 28.9 °F 65% 30.32 in 10.0 mi SSE 4.6 mph - N/A   Clear
5:53 PM 35.1 °F 32.2 °F 28.9 °F 78% 30.35 in 10.0 mi SSW 3.5 mph - N/A   Clear
6:53 PM 33.1 °F - 28.0 °F 82% 30.36 in 10.0 mi Calm Calm - N/A   Clear
7:53 PM 30.0 °F - 27.0 °F 88% 30.36 in 10.0 mi Calm Calm - N/A   Clear
8:53 PM 28.9 °F - 25.0 °F 85% 30.36 in 10.0 mi Calm Calm - N/A   Clear
9:53 PM 30.0 °F - 27.0 °F 88% 30.35 in 10.0 mi Calm Calm - N/A   Clear
10:53 PM 28.0 °F 24.2 °F 26.1 °F 92% 30.36 in 10.0 mi ESE 3.5 mph - N/A   Clear
11:53 PM 28.0 °F - 26.1 °F 92% 30.36 in 10.0 mi Calm Calm - N/A   Clear